[[{"header":{"parameterUnit":"m.s-1","parameterCategory":1,"la1":30.2991,"la2":30.254,"lo1":-89.0895,"lo2":-89.0444,"dy":0.0017,"dx":0.0017,"nx":28,"ny":28,"refTime":"2024-10-11T03:00:00:Z","depth":0,"parameterNumber":2,"parameterNumberName":"U-component_of_WINDS"},"data":[0,0,0,0,0,0,0,0,0,0,0,0,0,0,0,0,0,0,0,0,0,0,0,0,0,0,0,0,0,0,0,0,0,0,0,0,0,0,0,0,0,0,0,0,0,0,0,0,0,0,0,0,0,0,0,0,0,0,-1.5766,-1.5767,0,-1.5859,-1.586,-1.5861,-1.5861,-1.586,-1.5859,-1.5858,-1.5954,-1.5958,-1.5961,0,0,0,0,0,0,0,0,0,0,0,0,0,-1.559,-1.5593,-1.5766,-1.5767,-1.5768,-1.5859,-1.586,-1.5861,-1.5862,-1.586,-1.5859,-1.5857,-1.5953,-1.5957,-1.5962,0,0,0,0,0,0,0,0,0,0,0,0,0,-1.5673,-1.5594,-1.5766,-1.5779,-1.5781,-1.5859,-1.586,-1.5862,-1.5862,-1.586,-1.5858,-1.5857,-1.5951,-1.5957,-1.5962,-1.6033,0,0,-1.5979,-1.5982,0,0,0,0,0,0,0,0,-1.5668,-1.5679,-1.5776,-1.5779,-1.5781,-1.5847,-1.5833,-1.5919,-1.5862,-1.5831,-1.5858,-1.5856,-1.592,-1.5928,-1.5949,-1.6037,-1.6041,-1.598,-1.5983,-1.5985,-1.5987,0,0,0,0,0,0,0,-1.5662,-1.5675,-1.5803,-1.5778,-1.5781,-1.5781,-1.5791,-1.585,-1.5885,-1.5834,-1.5834,-1.5845,-1.5921,-1.5944,-1.5952,-1.6043,-1.598,-1.5984,-1.5988,-1.599,-1.6193,-1.6195,0,0,0,0,0,0,-1.5654,-1.567,-1.58,-1.5806,-1.5719,-1.5786,-1.5797,-1.5827,-1.5884,-1.5891,-1.5847,-1.5845,-1.5935,-1.5945,-1.5955,-1.6041,-1.5985,-1.5991,-1.5994,-1.6191,-1.6194,-1.6196,0,0,0,0,0,0,-1.565,-1.5665,-1.5796,-1.5738,-1.5755,-1.5791,-1.5825,-1.583,-1.5853,-1.5894,-1.59,-1.5864,-1.5934,-1.5947,-1.6013,-1.6045,-1.5993,-1.5998,-1.6189,-1.6192,-1.6195,-1.6214,0,0,0,0,0,0,-1.5645,-1.5664,-1.5691,-1.5739,-1.5758,-1.5853,-1.5827,-1.5833,-1.5863,-1.5861,-1.5911,-1.5918,-1.5934,-1.6005,-1.6019,-1.6051,-1.6002,-1.6186,-1.619,-1.6194,-1.6211,-1.6218,-1.6223,0,0,0,0,0,-1.5638,-1.5693,-1.5692,-1.5708,-1.5792,-1.5854,-1.5865,-1.5883,-1.5865,-1.5893,-1.5919,-1.5916,-1.6039,-1.6012,-1.6027,-1.6062,-1.6184,-1.6189,-1.6193,-1.6208,-1.6216,-1.6223,0,0,0,0,0,0,-1.5648,-1.5699,-1.5699,-1.577,-1.5808,-1.5854,-1.5889,-1.5891,-1.5934,-1.5931,-1.5951,-1.5962,-1.6028,-1.6052,-1.6021,-1.6133,-1.6109,-1.6117,-1.6115,-1.6124,-1.613,-1.6123,-1.6007,0,0,0,0,0,-1.5658,-1.5704,-1.5746,-1.5805,-1.5824,-1.5854,-1.5881,-1.5891,-1.5931,-1.5947,-1.5978,-1.6017,-1.6064,-1.6095,-1.6141,-1.6214,-1.6225,-1.6246,-1.6252,-1.6257,-1.6264,-1.6305,-1.6314,-1.6211,-1.6211,-1.6211,0,0,-1.568,-1.5714,-1.5741,-1.5808,-1.5838,-1.5886,-1.5867,-1.5918,-1.5953,-1.5955,-1.6019,-1.6043,-1.6088,-1.6158,-1.6191,-1.618,-1.6295,-1.6263,-1.6266,-1.6271,-1.6311,-1.632,-1.6329,-1.6214,-1.6214,-1.6213,0,0,-1.5744,-1.5774,-1.5826,-1.5857,-1.5903,-1.5922,-1.5935,-1.5981,-1.5997,-1.6061,-1.6064,-1.6106,-1.6187,-1.622,-1.6246,-1.6323,-1.6322,-1.6337,-1.637,-1.6409,-1.6417,-1.6425,-1.6452,-1.6462,-1.6344,-1.6344,-1.6344,0,-1.5765,-1.5837,-1.5853,-1.5905,-1.5934,-1.5937,-1.599,-1.6019,-1.6078,-1.6099,-1.6086,-1.6187,-1.6218,-1.6296,-1.6314,-1.6336,-1.6351,-1.6332,-1.6415,-1.6422,-1.6429,-1.6456,-1.6466,-1.6345,-1.6345,-1.6345,-1.6345,0,-1.5861,-1.591,-1.5947,-1.6004,-1.6037,-1.6089,-1.6114,-1.6146,-1.6153,-1.6173,-1.6239,-1.6276,-1.6329,-1.6349,-1.6356,-1.6428,-1.642,-1.641,-1.6387,-1.6441,-1.6466,-1.6476,-1.6347,-1.6347,-1.6346,-1.6346,0,0,-1.5934,-1.5999,-1.6012,-1.6038,-1.6088,-1.6127,-1.6179,-1.6231,-1.6259,-1.6299,-1.6344,-1.6412,-1.6404,-1.6434,-1.6445,-1.648,-1.6539,-1.6467,-1.6468,-1.6479,-1.6621,-1.6627,-1.6639,-1.6539,-1.6541,-1.6542,-1.6617,0,-1.6004,-1.6097,-1.6113,-1.6194,-1.624,-1.6244,-1.6289,-1.6326,-1.6346,-1.6389,-1.6412,-1.646,-1.6445,-1.6464,-1.6498,-1.6524,-1.6567,-1.6519,-1.6581,-1.6583,-1.657,-1.6652,-1.6659,-1.6728,-1.6627,-1.6628,-1.663,0,-1.6098,-1.614,-1.6226,-1.6271,-1.6291,-1.6331,-1.638,-1.6421,-1.6462,-1.6475,-1.6509,-1.6516,-1.6571,-1.6544,-1.662,-1.6587,-1.6613,-1.663,-1.6633,-1.664,-1.661,-1.6662,-1.675,-1.6761,-1.6645,-1.6644,-1.6643,0,-1.6143,-1.6222,-1.6283,-1.6305,-1.6359,-1.6387,-1.6411,-1.645,-1.6481,-1.6523,-1.6543,-1.6592,-1.6619,-1.6657,-1.6677,-1.6656,-1.6752,-1.6727,-1.6764,-1.6764,-1.6785,-1.6783,-1.688,-1.6801,-1.6801,-1.6801,-1.68,0,-1.622,-1.6272,-1.6304,-1.6342,-1.6401,-1.6419,-1.6477,-1.65,-1.6536,-1.6578,-1.6584,-1.6624,-1.6648,-1.6692,-1.6708,-1.6769,-1.6781,-1.6793,-1.6797,-1.6793,-1.6791,-1.6811,-1.6807,-1.6803,-1.6803,-1.6802,-1.6802,0,-1.628,-1.6304,-1.6371,-1.6416,-1.6429,-1.647,-1.6509,-1.6546,-1.6567,-1.6621,-1.6634,-1.6667,-1.6718,-1.6742,-1.6806,-1.6817,-1.6886,-1.6887,-1.6872,-1.6874,-1.691,-1.6906,-1.7022,-1.7039,-1.6949,-1.6949,-1.695,0,-1.6328,-1.6368,-1.6418,-1.6446,-1.6471,-1.6517,-1.6548,-1.6568,-1.66,-1.665,-1.6681,-1.6733,-1.6775,-1.6858,-1.6887,-1.6936,-1.6938,-1.6975,-1.6946,-1.694,-1.6939,-1.6937,-1.6941,-1.6981,-1.6982,-1.6982,-1.6983,0,-1.641,-1.6419,-1.6463,-1.6511,-1.6548,-1.6587,-1.6625,-1.6648,-1.6674,-1.671,-1.6762,-1.6795,-1.686,-1.6912,-1.6963,-1.6988,-1.699,-1.6992,-1.7003,-1.7,-1.699,-1.6996,-1.6888,-1.6989,-1.6989,-1.6988,-1.6988,-1.6988,-1.6466,-1.6502,-1.6542,-1.6591,-1.6622,-1.6657,-1.6694,-1.6719,-1.6763,-1.6818,-1.6827,-1.6883,-1.6924,-1.6992,-1.7019,-1.7064,-1.7055,-1.7071,-1.7075,-1.7079,-1.7081,-1.6983,-1.7073,-1.7073,-1.7073,-1.7073,-1.7072,0,-1.6548,-1.6575,-1.6619,-1.6672,-1.6711,-1.6709,-1.6751,-1.6783,-1.6833,-1.687,-1.6912,-1.6972,-1.7022,-1.7056,-1.7106,-1.7136,-1.7138,-1.7149,-1.7147,-1.7153,-1.7086,-1.7071,-1.7146,-1.7146,-1.7146,-1.7146,-1.7146,-1.7146,-1.6596,-1.6657,-1.6671,-1.6748,-1.6774,-1.6829,-1.6853,-1.6886,-1.6916,-1.6983,-1.7025,-1.7046,-1.7082,-1.7135,-1.7181,-1.719,-1.7208,-1.7219,-1.7227,-1.7165,-1.7157,-1.715,-1.7136,-1.7223,-1.7223,-1.729,-1.7291,-1.7291]},{"header":{"parameterUnit":"m.s-1","parameterCategory":1,"la1":30.2991,"la2":30.254,"lo1":-89.0895,"lo2":-89.0444,"dy":0.0017,"dx":0.0017,"nx":28,"ny":28,"refTime":"2024-10-11T03:00:00:Z","depth":0,"parameterNumber":3,"parameterNumberName":"V-component_of_WINDS"},"data":[0,0,0,0,0,0,0,0,0,0,0,0,0,0,0,0,0,0,0,0,0,0,0,0,0,0,0,0,0,0,0,0,0,0,0,0,0,0,0,0,0,0,0,0,0,0,0,0,0,0,0,0,0,0,0,0,0,0,-1.4244,-1.4243,0,-1.4167,-1.4166,-1.4165,-1.4082,-1.4081,-1.408,-1.4079,-1.4,-1.3999,-1.3998,0,0,0,0,0,0,0,0,0,0,0,0,0,-1.4319,-1.4318,-1.4244,-1.4243,-1.4242,-1.4167,-1.4166,-1.4165,-1.4082,-1.4081,-1.408,-1.4078,-1.4,-1.3999,-1.3998,0,0,0,0,0,0,0,0,0,0,0,0,0,-1.4269,-1.4318,-1.4244,-1.4192,-1.4186,-1.4167,-1.4166,-1.4164,-1.4083,-1.4081,-1.4079,-1.4078,-1.4,-1.3999,-1.3997,-1.4023,0,0,-1.3993,-1.3992,0,0,0,0,0,0,0,0,-1.4272,-1.4266,-1.42,-1.4195,-1.4189,-1.4132,-1.4163,-1.4117,-1.4083,-1.4122,-1.4079,-1.4077,-1.4045,-1.404,-1.4029,-1.4019,-1.4016,-1.3993,-1.3992,-1.3991,-1.3991,0,0,0,0,0,0,0,-1.4275,-1.4269,-1.4213,-1.42,-1.4193,-1.4172,-1.4163,-1.4154,-1.4094,-1.4119,-1.4112,-1.4104,-1.4042,-1.4031,-1.4027,-1.4015,-1.3993,-1.3991,-1.399,-1.399,-1.4021,-1.4023,0,0,0,0,0,0,-1.4287,-1.4272,-1.4216,-1.4211,-1.4227,-1.4172,-1.4162,-1.4152,-1.4094,-1.4084,-1.4106,-1.4101,-1.4034,-1.4029,-1.4024,-1.4049,-1.3991,-1.399,-1.3989,-1.4019,-1.4022,-1.4023,0,0,0,0,0,0,-1.4289,-1.4282,-1.4219,-1.424,-1.423,-1.4173,-1.4163,-1.4152,-1.4141,-1.4085,-1.4074,-1.4106,-1.4033,-1.4026,-1.4024,-1.4045,-1.3989,-1.3988,-1.4017,-1.402,-1.4022,-1.4101,0,0,0,0,0,0,-1.4291,-1.4284,-1.4293,-1.4241,-1.4229,-1.4221,-1.4164,-1.4152,-1.4138,-1.4131,-1.4082,-1.4072,-1.4031,-1.4026,-1.4022,-1.4042,-1.3986,-1.4015,-1.4019,-1.4022,-1.4096,-1.4106,-1.4115,0,0,0,0,0,-1.4294,-1.4318,-1.4294,-1.4288,-1.424,-1.4222,-1.4215,-1.4168,-1.4141,-1.4149,-1.4113,-1.4073,-1.4044,-1.4027,-1.4021,-1.4041,-1.4014,-1.4018,-1.4021,-1.4092,-1.4104,-1.4114,0,0,0,0,0,0,-1.4375,-1.4311,-1.4283,-1.4291,-1.4263,-1.4208,-1.4218,-1.4182,-1.4161,-1.4155,-1.4096,-1.4086,-1.4091,-1.4066,-1.4048,-1.4063,-1.4023,-1.4026,-1.4079,-1.409,-1.4099,-1.4104,-1.3985,0,0,0,0,0,-1.4394,-1.4385,-1.4329,-1.4342,-1.4329,-1.4276,-1.4266,-1.4232,-1.42,-1.4188,-1.4151,-1.4122,-1.4106,-1.4096,-1.4078,-1.4092,-1.408,-1.4103,-1.4112,-1.412,-1.4123,-1.4128,-1.4138,-1.4036,-1.4036,-1.4036,0,0,-1.4432,-1.4396,-1.4394,-1.4357,-1.4331,-1.4322,-1.4266,-1.426,-1.4253,-1.4187,-1.4182,-1.4155,-1.4118,-1.4124,-1.4124,-1.4103,-1.4149,-1.4125,-1.4132,-1.4131,-1.4133,-1.4143,-1.4151,-1.4039,-1.4038,-1.4038,0,0,-1.4498,-1.4471,-1.4477,-1.4452,-1.4414,-1.4378,-1.438,-1.4331,-1.431,-1.4305,-1.4254,-1.4245,-1.4219,-1.4194,-1.4178,-1.4235,-1.4197,-1.423,-1.4278,-1.4283,-1.4291,-1.4298,-1.4317,-1.4325,-1.4234,-1.4234,-1.4234,0,-1.4551,-1.4537,-1.4486,-1.4482,-1.4467,-1.4406,-1.4413,-1.4391,-1.4348,-1.4339,-1.4316,-1.4281,-1.4252,-1.4251,-1.4264,-1.4254,-1.4254,-1.4236,-1.4294,-1.43,-1.4306,-1.4324,-1.4331,-1.4238,-1.4238,-1.4237,-1.4237,0,-1.4603,-1.4594,-1.4604,-1.4565,-1.4551,-1.4552,-1.4501,-1.4493,-1.446,-1.4427,-1.4422,-1.4385,-1.4358,-1.4355,-1.4323,-1.4349,-1.4337,-1.4305,-1.4264,-1.4321,-1.4336,-1.4343,-1.4244,-1.4243,-1.4242,-1.4241,0,0,-1.4718,-1.465,-1.4655,-1.4635,-1.4588,-1.4579,-1.4578,-1.4552,-1.4546,-1.4518,-1.4515,-1.4494,-1.4463,-1.4446,-1.441,-1.4415,-1.4461,-1.4381,-1.438,-1.4397,-1.4487,-1.4511,-1.452,-1.4436,-1.4437,-1.4438,-1.449,0,-1.4776,-1.4769,-1.4723,-1.473,-1.472,-1.4662,-1.4661,-1.4632,-1.4601,-1.4588,-1.4553,-1.4539,-1.45,-1.4489,-1.4491,-1.4455,-1.4478,-1.445,-1.4432,-1.4432,-1.4442,-1.4528,-1.4554,-1.4604,-1.4495,-1.4496,-1.4497,0,-1.4842,-1.4818,-1.4824,-1.4776,-1.477,-1.477,-1.4741,-1.473,-1.4695,-1.4672,-1.4652,-1.4612,-1.4606,-1.4568,-1.4559,-1.4542,-1.4531,-1.4512,-1.4513,-1.4509,-1.4468,-1.4526,-1.4619,-1.4627,-1.4506,-1.4506,-1.4505,0,-1.4924,-1.4894,-1.4893,-1.4879,-1.4823,-1.4824,-1.48,-1.4764,-1.4751,-1.4726,-1.4717,-1.4692,-1.4678,-1.466,-1.4614,-1.459,-1.461,-1.4568,-1.459,-1.4592,-1.4597,-1.4597,-1.469,-1.4591,-1.4591,-1.4591,-1.4591,0,-1.4992,-1.4998,-1.4929,-1.4929,-1.4934,-1.488,-1.4886,-1.4857,-1.4825,-1.4818,-1.4766,-1.476,-1.47,-1.4687,-1.4651,-1.4649,-1.4643,-1.4624,-1.4615,-1.4629,-1.4631,-1.4621,-1.4616,-1.4593,-1.4593,-1.4592,-1.4592,0,-1.5085,-1.5039,-1.5035,-1.4982,-1.4969,-1.4975,-1.4929,-1.4926,-1.4892,-1.4884,-1.4878,-1.4825,-1.4807,-1.4759,-1.4729,-1.4705,-1.4712,-1.4695,-1.4724,-1.4718,-1.4743,-1.4741,-1.4832,-1.484,-1.4737,-1.4739,-1.4739,0,-1.5132,-1.5135,-1.5082,-1.5074,-1.5053,-1.504,-1.5026,-1.4973,-1.4961,-1.4921,-1.4923,-1.4901,-1.4881,-1.4855,-1.4813,-1.4789,-1.477,-1.4803,-1.4766,-1.478,-1.477,-1.477,-1.477,-1.4812,-1.4813,-1.4814,-1.4815,0,-1.5219,-1.5196,-1.5178,-1.5153,-1.5138,-1.5115,-1.5089,-1.5085,-1.5026,-1.5015,-1.4996,-1.498,-1.4949,-1.4928,-1.4897,-1.4873,-1.4834,-1.4827,-1.4831,-1.4845,-1.4862,-1.4852,-1.4746,-1.4825,-1.4824,-1.4824,-1.4823,-1.4823,-1.5289,-1.5289,-1.5252,-1.5234,-1.5209,-1.5186,-1.5181,-1.5146,-1.5129,-1.51,-1.507,-1.5054,-1.5018,-1.4973,-1.4951,-1.4938,-1.4918,-1.4923,-1.4925,-1.4927,-1.4933,-1.4865,-1.4932,-1.4932,-1.4932,-1.4931,-1.4931,0,-1.5373,-1.5347,-1.5331,-1.5296,-1.5282,-1.5247,-1.5216,-1.5206,-1.5193,-1.5163,-1.5144,-1.5122,-1.5101,-1.5057,-1.5032,-1.5029,-1.5011,-1.5025,-1.5024,-1.5019,-1.4953,-1.4952,-1.504,-1.504,-1.504,-1.504,-1.504,-1.504,-1.5416,-1.5413,-1.5386,-1.537,-1.5343,-1.5327,-1.5313,-1.5291,-1.5267,-1.5244,-1.5226,-1.5198,-1.5162,-1.5134,-1.5113,-1.51,-1.5093,-1.5113,-1.5095,-1.5034,-1.5023,-1.5014,-1.5012,-1.5112,-1.5112,-1.5161,-1.5162,-1.5162]}]]